Emporia, VA

10:47 AM EST on December 09, 2019 (GMT -0500)
Emporia-Greensville Regional

Weather History for KEMV - October, 2019

Change the Weather History Date:

Thursday, October 24, 2019

  Actual Average Record
Temperature  
Mean Temperature 54 °F -  
Max Temperature 71 °F 68 °F 82 °F (2007)
Min Temperature 38 °F 41 °F 27 °F (1987)
Degree Days  
Heating Degree Days 10    
Growing Degree Days 4 (Base 50)    
Moisture  
Dew Point 44 °F    
Average Humidity 78    
Maximum Humidity 100    
Minimum Humidity 36    
Precipitation  
Precipitation 0.00 in - - ()
Sea Level Pressure  
Sea Level Pressure 30.31 in    
Wind  
Wind Speed 0 mph (SE)    
Max Wind Speed 8 mph    
Max Gust Speed -    
Visibility 8 miles    
Events      
Averages and records for this station are not official NWS values.
T = Trace of Precipitation, MM = Missing Value Source: NWS Daily Summary

Daily Weather History Graph

Daily Weather History Graph

Search for Another Location

Airport or City:

Astronomy

Oct. 24, 2019 Rise Set
Actual Time 7:25 AM EDT 6:22 PM EDT
Civil Twilight 6:59 AM EDT 6:48 PM EDT
Nautical Twilight 6:28 AM EDT 7:18 PM EDT
Astronomical Twilight 5:58 AM EDT 7:48 PM EDT
Moon 3:02 AM EDT (10/24) 4:40 PM EDT (10/24)
Length of Visible Light 11h 49m
Length of Day
10h 56m
Waning Crescent, 17% of the Moon is Illuminated
Oct 24
Waning Crescent
Oct 27
New
Nov 4
First Quarter
Nov 12
Full
Nov 19
Last Quarter

Hourly Weather History & Observations

Time (EDT) Temp. Windchill Dew Point Humidity Pressure Visibility Wind Dir Wind Speed Gust Speed Precip Events Conditions
12:15 AM 42.6 °F - 42.6 °F 100% 30.25 in - Calm Calm - N/A   Unknown
12:35 AM 42.6 °F - 42.4 °F 99% 30.25 in 10.0 mi Calm Calm - N/A   Clear
12:55 AM 42.3 °F - 42.3 °F 100% 30.25 in - Calm Calm - N/A   Unknown
1:15 AM 43.2 °F - 43.2 °F 100% 30.26 in 10.0 mi Calm Calm - N/A   Clear
1:35 AM 42.1 °F - 42.1 °F 100% 30.26 in 5.0 mi Calm Calm - N/A   Clear
1:55 AM 42.4 °F - 42.4 °F 100% 30.26 in 2.0 mi Calm Calm - N/A   Clear
2:15 AM 41.9 °F - 41.7 °F 99% 30.27 in 7.0 mi Calm Calm - N/A   Clear
2:35 AM 41.0 °F - 40.8 °F 99% 30.27 in - Calm Calm - N/A   Unknown
2:55 AM 39.9 °F - 39.9 °F 100% 30.27 in 4.0 mi Calm Calm - N/A   Clear
3:15 AM 41.2 °F - 41.2 °F 100% 30.27 in 7.0 mi Calm Calm - N/A   Clear
3:35 AM 40.6 °F - 40.6 °F 100% 30.27 in 7.0 mi Calm Calm - N/A   Clear
3:55 AM 39.6 °F - 39.6 °F 100% 30.28 in 10.0 mi Calm Calm - N/A   Clear
4:15 AM 39.9 °F - 39.9 °F 100% 30.28 in - Calm Calm - N/A   Unknown
4:35 AM 39.6 °F - 39.6 °F 100% 30.28 in 5.0 mi Calm Calm - N/A   Clear
4:55 AM 40.3 °F - 40.3 °F 100% 30.29 in 10.0 mi Calm Calm - N/A   Clear
5:15 AM 40.1 °F - 40.1 °F 100% 30.30 in - Calm Calm - N/A   Unknown
5:35 AM 38.7 °F - 38.3 °F 99% 30.30 in - Calm Calm - N/A   Unknown
5:55 AM 38.7 °F - 38.7 °F 100% 30.30 in 10.0 mi Calm Calm - N/A   Clear
6:15 AM 39.0 °F - 39.0 °F 100% 30.30 in - Calm Calm - N/A   Unknown
6:35 AM 39.7 °F 37.6 °F 39.7 °F 100% 30.30 in - East 3.5 mph - N/A   Unknown
6:55 AM 38.8 °F - 38.8 °F 100% 30.31 in - Calm Calm - N/A   Unknown
7:15 AM 39.4 °F - 39.4 °F 100% 30.31 in 10.0 mi Calm Calm - N/A   Clear
7:35 AM 38.3 °F - 38.3 °F 100% 30.32 in 10.0 mi Calm Calm - N/A   Clear
7:55 AM 38.3 °F - 38.3 °F 100% 30.33 in - Calm Calm - N/A   Unknown
8:15 AM 40.1 °F - 40.1 °F 100% 30.34 in - Calm Calm - N/A   Unknown
8:35 AM 42.4 °F - 42.3 °F 99% 30.34 in - Calm Calm - N/A   Unknown
8:55 AM 45.0 °F - 44.2 °F 97% 30.35 in - Calm Calm - N/A   Unknown
9:15 AM 48.4 °F - 45.1 °F 89% 30.36 in - Calm Calm - N/A   Unknown
9:35 AM 50.7 °F - 45.0 °F 81% 30.36 in - Calm Calm - N/A   Clear
9:55 AM 54.0 °F - 46.9 °F 77% 30.36 in - Calm Calm - N/A   Clear
10:15 AM 55.9 °F - 48.0 °F 75% 30.36 in - Calm Calm - N/A   Clear
10:35 AM 58.6 °F - 47.5 °F 66% 30.36 in - Calm Calm - N/A   Clear
10:55 AM 61.0 °F - 45.5 °F 57% 30.36 in - Calm Calm - N/A   Clear
11:15 AM 63.1 °F - 44.8 °F 51% 30.36 in - Calm Calm - N/A   Clear
11:35 AM 63.3 °F - 43.7 °F 49% 30.36 in - Calm Calm - N/A   Clear
11:55 AM 65.8 °F - 44.8 °F 47% 30.36 in - Calm Calm - N/A   Clear
12:15 PM 65.7 °F - 44.6 °F 47% 30.35 in - SSE 4.6 mph - N/A   Clear
12:35 PM 67.8 °F - 44.1 °F 42% 30.35 in - East 3.5 mph - N/A   Clear
12:55 PM 68.0 °F - 43.3 °F 41% 30.34 in - Calm Calm - N/A   Clear
1:15 PM 69.6 °F - 43.2 °F 38% 30.33 in 4.0 mi East 3.5 mph - N/A   Clear
1:35 PM 69.8 °F - 42.4 °F 37% 30.33 in - ESE 4.6 mph - N/A   Clear
1:55 PM 69.4 °F - 43.3 °F 39% 30.32 in - SE 6.9 mph - N/A   Clear
2:15 PM 70.2 °F - 43.0 °F 37% 30.30 in 4.0 mi ESE 3.5 mph - N/A   Clear
2:35 PM 70.2 °F - 43.7 °F 38% 30.30 in 4.0 mi SE 8.1 mph - N/A   Clear
3:15 PM 70.3 °F - 42.8 °F 37% 30.29 in 10.0 mi SW 3.5 mph - N/A   Clear
3:35 PM 71.4 °F - 43.3 °F 36% 30.29 in - East 5.8 mph - N/A   Clear
3:55 PM 70.7 °F - 44.8 °F 39% 30.29 in - SE 4.6 mph - N/A   Clear
4:15 PM 71.1 °F - 44.6 °F 39% 30.29 in 10.0 mi Calm Calm - N/A   Clear
4:35 PM 71.4 °F - 44.6 °F 38% 30.29 in - Calm Calm - N/A   Clear
4:55 PM 70.9 °F - 45.0 °F 39% 30.28 in - Calm Calm - N/A   Clear
5:15 PM 70.0 °F - 45.7 °F 42% 30.29 in - Calm Calm - N/A   Clear
5:35 PM 68.9 °F - 45.7 °F 43% 30.29 in - Calm Calm - N/A   Clear
5:55 PM 68.0 °F - 46.8 °F 47% 30.29 in - Calm Calm - N/A   Clear
6:15 PM 63.0 °F - 48.6 °F 59% 30.29 in - Calm Calm - N/A   Scattered Clouds
6:35 PM 58.8 °F - 50.2 °F 73% 30.29 in 10.0 mi Calm Calm - N/A   Scattered Clouds
6:55 PM 56.7 °F - 50.9 °F 81% 30.30 in - Calm Calm - N/A   Clear
7:15 PM 55.2 °F - 51.6 °F 88% 30.30 in - Calm Calm - N/A   Unknown
7:35 PM 54.9 °F - 50.9 °F 86% 30.31 in - Calm Calm - N/A   Mostly Cloudy
7:55 PM 54.3 °F - 51.1 °F 89% 30.31 in - Calm Calm - N/A   Unknown
8:15 PM 53.2 °F - 50.5 °F 91% 30.31 in - Calm Calm - N/A   Unknown
8:35 PM 53.1 °F - 50.9 °F 92% 30.31 in 10.0 mi Calm Calm - N/A   Mostly Cloudy
8:55 PM 52.5 °F - 50.4 °F 92% 30.31 in 10.0 mi Calm Calm - N/A   Mostly Cloudy
9:15 PM 51.6 °F - 50.2 °F 95% 30.32 in 10.0 mi Calm Calm - N/A   Mostly Cloudy
9:35 PM 51.8 °F - 50.0 °F 94% 30.33 in 10.0 mi Calm Calm - N/A   Mostly Cloudy
9:55 PM 50.7 °F - 49.3 °F 95% 30.33 in 10.0 mi Calm Calm - N/A   Scattered Clouds
10:15 PM 49.5 °F - 48.7 °F 97% 30.33 in - Calm Calm - N/A   Unknown
10:35 PM 49.6 °F - 49.1 °F 98% 30.34 in 10.0 mi Calm Calm - N/A   Clear
10:55 PM 49.6 °F - 49.3 °F 99% 30.34 in 10.0 mi Calm Calm - N/A   Scattered Clouds
11:35 PM 50.0 °F - 49.3 °F 97% 30.34 in 10.0 mi Calm Calm - N/A   Mostly Cloudy
11:55 PM 49.3 °F - 49.1 °F 99% 30.34 in 10.0 mi Calm Calm - N/A   Mostly Cloudy